Weather History for Fort Polk, LA

Change the Weather History Date:

Monday, November 19, 2012

  Actual Average (KPOE) Record (KPOE)
Temperature  
Mean Temperature 56 °F -  
Max Temperature 72 °F 65 °F 78 °F (1999)
Min Temperature 39 °F 46 °F 35 °F (2000)
Degree Days  
Heating Degree Days 10    
Growing Degree Days 6 (Base 50)    
Moisture  
Dew Point 43 °F    
Average Humidity 71    
Maximum Humidity 93    
Minimum Humidity 35    
Precipitation  
Precipitation 0.00 in - - ()
Sea Level Pressure  
Sea Level Pressure 30.31 in    
Wind  
Wind Speed 0 mph (West)    
Max Wind Speed 4 mph    
Max Gust Speed -    
Visibility 9 miles    
Events      
Averages and records for this station are not official NWS values.
T = Trace of Precipitation, MM = Missing Value Source: NWS Daily Summary

Daily Weather History Graph

Daily Weather History Graph

Search for Another Location

Airport:

Trip Planner

Search our weather history database for the weather conditions in past years. The results will help you decide how hot, cold, wet, or windy it might be!

Date:

Astronomy

Nov. 19, 2012 Rise Set
Actual Time 6:42 AM CST 5:11 PM CST
Civil Twilight 6:16 AM CST 5:37 PM CST
Nautical Twilight 5:47 AM CST 6:06 PM CST
Astronomical Twilight 5:18 AM CST 6:35 PM CST
Moon 11:54 AM CST (11/19) 11:28 PM CST (11/19)
Length of Visible Light 11h 20m
Length of Day
10h 29m
Waxing Crescent, 41% of the Moon is Illuminated
Nov 19
Waxing Crescent
Nov 20
First Quarter
Nov 28
Full
Dec 6
Last Quarter
Dec 13
New

Hourly Weather History & Observations

Time (CST) Temp. Dew Point Humidity Pressure Visibility Wind Dir Wind Speed Gust Speed Precip Events Conditions
12:54 AM 43.0 °F 39.0 °F 86% 30.34 in 10.0 mi Calm Calm - N/A   Clear
1:54 AM 42.1 °F 39.0 °F 89% 30.33 in 10.0 mi Calm Calm - N/A   Clear
2:54 AM 41.0 °F 37.9 °F 89% 30.34 in 10.0 mi Calm Calm - N/A   Clear
3:54 AM 39.9 °F 37.9 °F 93% 30.33 in 10.0 mi Calm Calm - N/A   Clear
4:54 AM 39.0 °F 37.0 °F 93% 30.32 in 8.0 mi Calm Calm - N/A   Clear
5:54 AM 39.0 °F 37.0 °F 93% 30.34 in 7.0 mi Calm Calm - N/A   Clear
6:54 AM 39.0 °F 36.0 °F 89% 30.36 in 6.0 mi Calm Calm - N/A   Clear
7:54 AM 45.0 °F 43.0 °F 93% 30.36 in 8.0 mi Calm Calm - N/A   Clear
8:54 AM 57.9 °F 45.0 °F 62% 30.35 in 10.0 mi Calm Calm - N/A   Clear
9:54 AM 64.0 °F 44.1 °F 48% 30.36 in 10.0 mi Calm Calm - N/A   Clear
10:54 AM 68.0 °F 45.0 °F 43% 30.36 in 10.0 mi Calm Calm - N/A   Clear
11:54 AM 68.0 °F 44.1 °F 42% 30.33 in 10.0 mi Calm Calm - N/A   Clear
12:54 PM 70.0 °F 43.0 °F 38% 30.30 in 10.0 mi West 3.5 mph - N/A   Clear
1:54 PM 72.0 °F 43.0 °F 35% 30.26 in 10.0 mi Calm Calm - N/A   Clear
3:54 PM 70.0 °F 44.1 °F 39% 30.25 in 8.0 mi Calm Calm - N/A   Clear
4:54 PM 64.9 °F 46.9 °F 52% 30.25 in 10.0 mi Calm Calm - N/A   Scattered Clouds
5:54 PM 59.0 °F 46.9 °F 64% 30.26 in 10.0 mi Calm Calm - N/A   Partly Cloudy
6:54 PM 57.9 °F 48.0 °F 70% 30.27 in 10.0 mi Calm Calm - N/A   Partly Cloudy
7:54 PM 55.9 °F 48.0 °F 75% 30.28 in 10.0 mi Calm Calm - N/A   Partly Cloudy
8:54 PM 53.1 °F 46.0 °F 77% 30.28 in 10.0 mi Calm Calm - N/A   Partly Cloudy
9:54 PM 50.0 °F 45.0 °F 83% 30.27 in 10.0 mi Calm Calm - N/A   Clear
10:54 PM 48.9 °F 45.0 °F 86% 30.26 in 10.0 mi Calm Calm - N/A   Clear
11:54 PM 46.9 °F 44.1 °F 90% 30.25 in 10.0 mi Calm Calm - N/A   Clear